Regional Weather Roundup
Issued by NWS

Home | Current Version | Previous Version | Graphics & Text | Print | Product List | Glossary On
Versions: 1 2 3 4 5 6 7 8 9 10 11 12 13 14 15 16 17 18 19 20 21 22 23 24 25 26 27 28 29 30 31 32 33 34 35 36 37 38 39 40 41 42 43 44 45 46 47 48 49 50
791
ASUS45 KTFX 231310
RWRMT
MONTANA REGIONAL WEATHER ROUNDUP
NATIONAL WEATHER SERVICE GREAT FALLS MT
700 AM MDT MON MAY 23 2016

NOTE: "FAIR" INDICATES FEW OR NO CLOUDS BELOW 12000 FEET WITH NO
SIGNIFICANT WEATHER AND/OR OBSTRUCTIONS TO VISIBILITY.

MTZ001>007-043-231400-
WEST OF THE DIVIDE

CITY           SKY/WX    TMP DP  RH WIND       PRES   REMARKS
KALISPELL      CLOUDY    47  41  80 S8        29.71R
MISSOULA       CLOUDY    46  40  79 SE7       29.81S
BUTTE          CLOUDY    43  25  49 SW9       29.83R
MULLAN PASS    LGT SNOW  33  33 100 W8        29.77S VSB 1   WCI  26
ANACONDA         N/A     43  28  56 SW5       29.82R
DEER LODGE       N/A     43  36  75 N5        29.81R
EUREKA           N/A     45  41  87 E5        29.70S
HAMILTON         N/A     46  37  71 CALM      29.82S
LIBBY            N/A     45  45 100 CALM      29.73R
PLAINS           N/A     50  39  65 CALM      29.79S
$$

MTZ008-052>055-231400-
SOUTHWEST MONTANA

CITY           SKY/WX    TMP DP  RH WIND       PRES   REMARKS
BOZEMAN        CLOUDY    49  28  44 SW14G20   29.80R
DILLON         CLOUDY    41  29  62 S13       29.84R
ENNIS          PTSUNNY   41  30  65 S12G18    29.91R
TWIN BRIDGES     N/A     41  29  62 SE2       29.85R
$$

MTZ009-010-012-014-046-048-049-054-231400-
EAST SLOPES AND CENTRAL MONTANA

CITY           SKY/WX    TMP DP  RH WIND       PRES   REMARKS
CUT BANK       LGT RAIN  40  38  93 NW12      29.65R
GREAT FALLS    CLOUDY    48  34  58 SW20G28   29.66R
MALMSTROM AFB  CLOUDY    48  35  59 SW21G31   29.67R
HELENA         CLOUDY    47  34  60 SW5       29.76R
CHOTEAU          N/A     48  32  53 NW9G16    29.65R
CONRAD           N/A     42  42 100 N1        29.71R
$$

MTZ011-013-016-021-045-047-050-051-231400-
NORTH CENTRAL MONTANA

CITY           SKY/WX    TMP DP  RH WIND       PRES   REMARKS
HAVRE          CLOUDY    46  43  89 W13       29.61R
LEWISTOWN      CLOUDY    49  33  54 SW20      29.69R
N BAR RANCH      N/A     48  32  53 SW18      29.71S
CHINOOK          N/A     46  43  87 W12G17    29.59S
$$

MTZ017>020-022>027-061-062-231400-
NORTHEAST MONTANA

CITY           SKY/WX    TMP DP  RH WIND       PRES   REMARKS
GLASGOW        CLOUDY    52  42  69 W7        29.60R
JORDAN           N/A     52  32  46 SW16      29.64R
SIDNEY         SUNNY     48  39  71 S9        29.65R
WOLF POINT     MOSUNNY   47  41  80 CALM      29.62R
PLENTYWOOD       N/A     48  37  66 SE6       29.61R
POPLAR           N/A     48  37  66 CALM      29.63R
$$

MTZ028>42-056>058-231400-
SOUTHCENTRAL AND SOUTHEAST MONTANA

CITY           SKY/WX    TMP DP  RH WIND       PRES   REMARKS
BAKER          SUNNY     52  37  56 SW9       29.73S
BILLINGS       MOSUNNY   49  33  54 SW14      29.74S
LIVINGSTON     PTSUNNY   48  28  46 W24G30    29.76R
MILES CITY     SUNNY     51  37  58 SE7       29.70R
EKALAKA          N/A     53  33  46 SW2       29.76R
FORSYTH          N/A     54  36  50 SW7       29.70R
$$

REGIONAL REPORTS...DAKOTAS

CITY           SKY/WX    TMP DP  RH WIND       PRES   REMARKS
WILLISTON      SUNNY     52  41  66 S3        29.63S
MINOT          SUNNY     60  42  51 SW9       29.61R
DICKINSON      SUNNY     52  39  61 W12       29.67R
BEACH            N/A     54  37  54 SW9       29.73R
CROSBY           N/A     54  39  58 SW9       29.63S
WATFORD CITY     N/A     54  43  66 MISG      29.64F
BISMARCK       SUNNY     58  48  69 CALM      29.67R
GRAND FORKS    LGT RAIN  63  59  87 S13       29.58R
FARGO          MOSUNNY   67  60  78 S18       29.61R
BUFFALO SD       N/A     48  39  71 W8        29.68R
RAPID CITY     SUNNY     52  41  66 CALM      29.77R
$$

REGIONAL REPORTS...WYOMING/IDAHO/WASHINGTON

CITY           SKY/WX    TMP DP  RH WIND       PRES   REMARKS
GILLETTE       SUNNY     48  29  47 SW15      29.80R
SHERIDAN       CLOUDY    52  32  46 S7        29.77S
BUFFALO WY     SUNNY     48  29  47 W7        29.79S
CODY           SUNNY     48  25  40 W12G17    29.82R
YELLOWSTONE LA   N/A     32  25  75 CALM      29.95R
IDAHO FALLS    CLEAR     37  33  85 SW7       29.94S WCI  32
SALMON         CLOUDY    43  34  70 CALM      29.87R
BOISE          PTCLDY    45  37  73 SE9       29.91R
SPOKANE        CLOUDY    45  40  82 SW18      29.79S
$$

REGIONAL REPORTS...ALBERTA

CITY           SKY/WX    TMP DP  RH WIND       PRES   REMARKS
EDMONTON       CLOUDY    43  39  87 NW12G17   29.62R
CALGARY        LGT RAIN  39  34  81 NW22G31   29.64R WCI  29
LETHBRIDGE     LGT RAIN  43  39  87 W15       29.64R
MEDICINE HAT   LGT RAIN  43  43 100 W17       29.53S FOG
WATERTON GATE    N/A     41  36  81 S6          N/A
CARDSTON         N/A     39  37  93 NW8         N/A
MILK RIVER       N/A     41  39  93 W12         N/A
ONEFOUR          N/A     41  39  93 W18G26      N/A
$$

REGIONAL REPORTS...SASKATCHEWAN

CITY           SKY/WX    TMP DP  RH WIND       PRES   REMARKS
SWIFT CURRENT  CLOUDY    43  39  87 W23       29.46S
REGINA         PTSUNNY   52  41  66 S14       29.52S
SASKATOON      MOSUNNY   45  43  93 S9        29.47S
CYPRESS HILLS    N/A     37  34  87 W8          N/A  WCI  31
ROCKGLEN         N/A     46  41  81 SW23G29     N/A
$$




USA.gov is the U.S. government's official web portal to all federal, state and local government web resources and services.